Regional Weather Roundup
Issued by NWS

Home | Current Version | Previous Version | Text Only | Print | Product List | Glossary On
Versions: 1 2 3 4 5 6 7 8 9 10 11 12 13 14 15 16 17 18 19 20 21 22 23 24 25 26 27 28 29 30 31 32 33 34 35 36 37 38 39 40 41 42 43 44 45 46 47 48 49 50
000
ASUS45 KTFX 041119
RWRMT
MONTANA HOURLY WEATHER ROUNDUP
NATIONAL WEATHER SERVICE GREAT FALLS MT
419 AM MST WED MAR 4 2015

NOTE: "FAIR" INDICATES FEW OR NO CLOUDS BELOW 12000 FEET WITH NO
SIGNIFICANT WEATHER AND/OR OBSTRUCTIONS TO VISIBILITY.

* THESE STATIONS ARE NOT UNDER NWS QUALITY CONTROL. THEY DO NOT
   REPORT WEATHER SUCH AS PRECIPITATION OR FOG.

MTZ001>007-043-041200-
WEST OF THE DIVIDE
CITY           SKY/WX    TMP DP  RH WIND       PRES   REMARKS
KALISPELL      CLEAR      9   3  76 CALM      30.19R
MISSOULA       CLEAR     14   9  80 CALM      30.21R
BUTTE          CLEAR      0  -6  75 SE5       30.06R WCI -11
MULLAN PASS    CLEAR     12   3  67 CALM      30.01F
* ANACONDA     CLEAR      9   1  70 S5         N/A
* ESSEX        N/A        6  -3  66 SE6        N/A   WCI  -5
* EUREKA APT   CLEAR      9   3  76 S3        30.23S
* HAMILTON APT CLEAR     14   9  80 S10       30.17R WCI   1
* LIBBY APT    CLEAR      9   7  91 CALM      30.22S
* LINCOLN      N/A       -5 -11  75 NW1        N/A
* LOOKOUT PASS N/A       12   7  80 N/A        N/A
* POLSON       N/A       12   6  77 N/A        N/A
* RONAN APT    CLEAR     16   9  74 N/A        N/A
* SEELEY LAKE  N/A       -2  -7  79 N1         N/A
* THOMP F APT  CLEAR      9  -2  61 N3G9       N/A
* YAAK HILL    N/A       16  11  81 E1         N/A
$$

MTZ008-052>055-041200-
SOUTHWEST MONTANA
CITY           SKY/WX    TMP DP  RH WIND       PRES   REMARKS
BOZEMAN        CLEAR      0  -8  68 E3        30.12S
DILLON         CLEAR      3  -2  79 S6        30.06S WCI  -8
* W YELLOWSTON PTCLDY   -13 -20  70 N/A        N/A
* THREE FORKS  CLEAR      1  -6  72 N/A        N/A
* BOULDER HILL N/A        2  -3  79 N/A        N/A
* MONIDA PASS  N/A        2  -5  72 W7         N/A   WCI -11
* RAYNOLDS PAS N/A        0  -1  95 N6         N/A   WCI -12
* WHITEHALL    N/A        4  -3  72 N7         N/A   WCI  -8
* WISE RIVER   N/A        6   0  76 S4         N/A
$$

MTZ009>010-012-014-046-048-049-054-041200-
EAST SLOPES AND CENTRAL MONTANA
CITY           SKY/WX    TMP DP  RH WIND       PRES   REMARKS
CUT BANK       CLEAR      1  -8  65 W8        30.10F WCI -13
GREAT FALLS    CLEAR      5  -2  72 SW9       30.15F WCI  -9
HELENA         CLEAR      9   0  66 E3        30.16S
MALMSTROM AFB  FAIR       7   3  83 SW7       30.17F WCI  -5
* CONRAD       CLEAR      7  -2  66 CALM       N/A
* DEARBORN     N/A       -4  -8  83 S1         N/A
* EAST GLACIER N/A       -4 -10  75 N11        N/A   WCI -22
* MONARCH      N/A       -1  -6  79 S8         N/A   WCI -15
* PENDROY      N/A        4  -5  66 W11        N/A   WCI -12
* ROGERS PASS  N/A        1  -7  69 W4         N/A
* SWEET GRASS  N/A        6  -8  52 SW12       N/A   WCI -10
* WHITE SULPH  N/A      N/A N/A N/A SE2        N/A
$$

MTZ011-013-016-021-035-040-045-047-050-051-041200-
NORTH CENTRAL MONTANA
CITY           SKY/WX    TMP DP  RH WIND       PRES   REMARKS
HAVRE          CLEAR     -2  -8  75 SW5       30.21F WCI -13
LEWISTOWN      CLEAR      1  -8  65 W9        30.11S WCI -14
* N BAR RANCH  FAIR       1  -8  65 NW17      30.06F WCI -19
* CHINOOK      CLEAR      1  -6  72 W5        30.23F WCI  -9
* FORT BENTON  CLEAR      7  -2  66 SW3       30.22F
* CHESTER      N/A        4  -7  60 W3         N/A
* DENTON       N/A      N/A N/A N/A W4         N/A
* GEYSER       N/A        7   0  73 W14G19     N/A   WCI -10
* JUDITH GAP   N/A       -1  -6  79 VRB10      N/A   WCI -17
* LOMA         N/A        6  -2  69 W4         N/A
$$

MTZ017>020-022>027-061-062-041200-
NORTHEAST MONTANA
CITY           SKY/WX    TMP DP  RH WIND       PRES   REMARKS
GLASGOW        PTCLDY    -2 -11  65 NW7       30.22R WCI -15
JORDAN         CLEAR      0  -4  83 N9        30.19R WCI -15
SIDNEY         CLEAR     -4 -11  71 W8        30.25R WCI -19
WOLF POINT     CLEAR     -2 -11  65 NW6       30.25R WCI -14
* BEAVER HILL  N/A       -5 -11  75 W11        N/A   WCI -23
* CIRCLE       N/A        0  -6  75 N/A        N/A
* LINDSAY DVD  N/A       -6 -11  78 NW9G16     N/A   WCI -22
* NAVAJO       N/A      -11 -17  74 NW7        N/A   WCI -26
* PLENTYWOOD A CLEAR    -11 -17  74 NW9       30.19R WCI -29
* POPLAR APT   CLEAR     -6 -11  78 W6        30.26R WCI -19
* SACO         N/A       -4 -10  75 SW4        N/A
$$

MTZ028>042-056>058-041200-
SOUTHCENTRAL AND SOUTHEAST MONTANA
CITY           SKY/WX    TMP DP  RH WIND       PRES   REMARKS
BAKER          FAIR       0  -6  75 NW16      30.11R WCI -20
BILLINGS       CLOUDY    12   0  58 NW15      30.14R WCI  -4
LIVINGSTON     CLEAR      1  -8  65 NW12      30.09R WCI -16
MILES CITY     CLEAR      1  -4  79 NW7       30.18R WCI -12
* BIG TIMBER A CLEAR      3  -6  66 W5        30.10R WCI  -7
* FORSYTH APT  CLEAR      7  -2  66 W3        30.20R
* LAUREL APT   PTCLDY     1  -8  65 S6         N/A   WCI -11
* ROUNDUP APT  CLEAR      7  -8  50 N8         N/A   WCI  -6
* ALZADA       N/A        5  -1  76 W9         N/A   WCI  -9
* HYSHAM       N/A        4  -7  60 W1         N/A
* REED POINT   N/A       -1  -4  87 N/A        N/A
* ROSCOE HILL  N/A        4  -8  57 SW6        N/A   WCI  -7
$$

REGIONAL REPORTS...DAKOTAS
CITY           SKY/WX    TMP DP  RH WIND       PRES   REMARKS
WILLISTON      CLEAR     -9 -15  74 NW9       30.21R WCI -26
DICKINSON      CLEAR     -4 -13  65 NW20      30.08R WCI -27
BEACH          CLEAR     -4  -9  79 NW7       30.13R WCI -18
CROSBY         CLEAR    -11 -18  70 NW18G23   30.20R WCI -35
TIOGA          CLEAR    -13 -17  82 NW14      30.17R WCI -35
WATFORD CITY   CLEAR     -6 -13  71 NW9       30.16R WCI -22
BISMARCK       CLEAR      0  -9  65 NW15G23   30.16R WCI -19
GRAND FORKS    CLEAR     -8 -15  71 NW9       30.11R WCI -25
FARGO          CLEAR     -2 -11  65 W9        30.12R WCI -18
BUFFALO SD     PTCLDY     0  -6  75 W10       30.01R WCI -16
RAPID CITY     CLEAR      3  -6  66 N12       30.09R WCI -14
$$

REGIONAL REPORTS...WYOMING/IDAHO/WASHINGTON
CITY           SKY/WX    TMP DP  RH WIND       PRES   REMARKS
GILLETTE       PTCLDY     1  -8  65 W12       30.05R WCI -16
SHERIDAN       CLOUDY     9  -4  55 NW18      30.10R WCI  -9
CODY           PTCLDY     1  -2  87 S5        30.06R WCI  -9
YELLOWSTONE LA PTCLDY   -18 -24  73 CALM      29.94S
SALMON         PTCLDY    18   9  68 CALM      30.16R
MULLAN PASS    CLEAR     12   3  67 CALM      30.01S
SAND POINT     CLEAR     18  16  92 CALM      30.22S
SPOKANE        CLEAR     25  12  58 SW6       30.19S WCI  18
$$

REGIONAL REPORTS...ALBERTA
CITY           SKY/WX    TMP DP  RH WIND       PRES   REMARKS
CALGARY        FAIR       3  -6  66 S3        30.07F
LETHBRIDGE     CLEAR      3  -4  72 SW10      30.14F WCI -12
MEDICINE HAT   CLEAR     -4  -8  83 S3        30.23S
EDMONTON       N/A       -6 -15  64 S8        30.15F WCI -21
WATERTON GATE  N/A      -11 -17  74 E3         N/A
CARDSTON       N/A       -6 -11  78 E1         N/A
MILK RIVER     N/A       -4 -11  71 W9         N/A   WCI -20
$$

REGIONAL REPORTS...SASKATCHEWAN
CITY           SKY/WX    TMP DP  RH WIND       PRES   REMARKS
SWIFT CURRENT  CLEAR    -15 -18  86 NW6       30.17R WCI -30
MOOSE JAW      N/A      -20 -29  62 W10       30.26R WCI -41
REGINA         N/A      -20 -26  73 NW9       30.22R WCI -40
VAL MARIE      N/A       -8 -11  86 NW5        N/A   WCI -20
ASSINIBOIA     N/A      -17 -22  77 NW8        N/A   WCI -35
CORONACH       N/A      -13 -18  78 W8         N/A   WCI -30

$$




USA.gov is the U.S. government's official web portal to all federal, state and local government web resources and services.